Location: Harwich
(41.7160°N, 69.9939°W)
Time: 17:14:01
(UTC+01:00)

Explorer 7 - Pass Details

Date: 03 February 2023
Orbit: 478 x 657 km, 50.3° (Epoch: 19 March)

Event Time Altitude Azimuth Distance (km) Brightness Sun altitude
Rises 01:29:46 0° 285° (WNW) 2,943 11.7 -28.8°
Reaches altitude 10° 01:33:26 10° 256° (WSW) 2,054 10.6 -29.5°
Maximum altitude 01:35:20 12° 232° (SW) 1,907 10.1 -29.8°
Drops below altitude 10° 01:37:15 10° 208° (SSW) 2,063 10.0 -30.2°
Enters shadow 01:38:29 - 196° (SSW) 2,298 10.1 -30.4°
